Lincoln, NE

8:12 PM CST on December 15, 2017 (GMT -0600)
Lincoln Municipal

Weather History for KLNK - June, 2013

Change the Weather History Date:

Friday, June 28, 2013

  Actual Average Record
Temperature  
Mean Temperature 76 °F 76 °F  
Max Temperature 87 °F 88 °F 103 °F (1936)
Min Temperature 65 °F 65 °F 52 °F (1985)
Degree Days  
Heating Degree Days 0 0  
Month to date heating degree days 20 13  
Since 1 June heating degree days 20 13  
Since 1 July heating degree days 6326 6053  
Cooling Degree Days 11 11  
Month to date cooling degree days 221 220  
Year to date cooling degree days 308 299  
Since 1 June cooling degree days 221 220  
Growing Degree Days 26 (Base 50)    
Moisture  
Dew Point 59 °F    
Average Humidity 62    
Maximum Humidity 93    
Minimum Humidity 30    
Precipitation  
Precipitation 0.00 in 0.13 in 1.99 in (2017)
Month to date precipitation 2.49 4.09  
Year to date precipitation 18.34 14.43  
Snow  
Snow 0.00 in 0.00 in - ()
Month to date snowfall 0.0 0.0  
Since 1 July snowfall 27.5 25.9  
Snow Depth 0.00 in    
Sea Level Pressure  
Sea Level Pressure 29.96 in    
Wind  
Wind Speed 11 mph (NNW)    
Max Wind Speed 26 mph    
Max Gust Speed 32 mph    
Visibility 10 miles    
Events      
T = Trace of Precipitation, MM = Missing Value Source: NWS Daily Summary

Daily Weather History Graph

Daily Weather History Graph

Search for Another Location

Airport or City:

Trip Planner

Search our weather history database for the weather conditions in past years. The results will help you decide how hot, cold, wet, or windy it might be!

Date:

Astronomy

Jun. 28, 2013 Rise Set
Actual Time 5:57 AM CDT 9:02 PM CDT
Civil Twilight 5:24 AM CDT 9:36 PM CDT
Nautical Twilight 4:41 AM CDT 10:18 PM CDT
Astronomical Twilight 3:51 AM CDT 11:09 PM CDT
Moon No Moon Rise 12:09 PM CDT (6/28)
Length of Visible Light 16h 11m
Length of Day
15h 04m
Waning Gibbous, 66% of the Moon is Illuminated
Jun 28
Waning Gibbous
Jun 29
Last Quarter
Jul 8
New
Jul 15
First Quarter
Jul 22
Full

Hourly Weather History & Observations

Time (CDT) Temp. Heat Index Dew Point Humidity Pressure Visibility Wind Dir Wind Speed Gust Speed Precip Events Conditions
12:54 AM 68.0 °F - 64.9 °F 90% 29.97 in 10.0 mi Calm Calm - N/A   Clear
1:54 AM 69.1 °F - 66.0 °F 90% 29.96 in 10.0 mi NNW 5.8 mph - N/A   Clear
2:54 AM 66.0 °F - 64.0 °F 93% 29.96 in 10.0 mi Calm Calm - N/A   Clear
3:54 AM 66.0 °F - 64.0 °F 93% 29.95 in 10.0 mi NNW 3.5 mph - N/A   Clear
4:54 AM 70.0 °F - 64.9 °F 84% 29.94 in 10.0 mi NNW 4.6 mph - N/A   Clear
5:54 AM 71.1 °F - 64.9 °F 81% 29.97 in 10.0 mi NNW 6.9 mph - N/A   Overcast
6:54 AM 72.0 °F - 64.9 °F 78% 29.98 in 10.0 mi NW 8.1 mph - N/A   Mostly Cloudy
7:54 AM 73.9 °F - 64.0 °F 71% 29.99 in 10.0 mi NNW 8.1 mph - N/A   Partly Cloudy
8:54 AM 77.0 °F - 61.0 °F 58% 30.00 in 10.0 mi North 10.4 mph - N/A   Clear
9:54 AM 79.0 °F - 60.1 °F 52% 30.00 in 10.0 mi North 9.2 mph - N/A   Clear
10:54 AM 81.0 °F 81.3 °F 59.0 °F 47% 29.99 in 10.0 mi North 16.1 mph 23.0 mph N/A   Clear
11:54 AM 84.0 °F 83.0 °F 55.9 °F 38% 29.99 in 10.0 mi North 18.4 mph 24.2 mph N/A   Clear
12:54 PM 84.9 °F 83.6 °F 55.0 °F 36% 29.99 in 10.0 mi NNW 19.6 mph 28.8 mph N/A   Clear
1:54 PM 86.0 °F 84.2 °F 54.0 °F 33% 29.97 in 10.0 mi NW 18.4 mph 24.2 mph N/A   Clear
2:54 PM 86.0 °F 84.2 °F 54.0 °F 33% 29.96 in 10.0 mi NNW 18.4 mph 24.2 mph N/A   Clear
3:54 PM 86.0 °F - 51.1 °F 30% 29.95 in 10.0 mi NNW 21.9 mph 29.9 mph N/A   Clear
4:54 PM 86.0 °F 84.2 °F 54.0 °F 33% 29.93 in 10.0 mi NNW 17.3 mph 27.6 mph N/A   Clear
5:54 PM 86.0 °F - 51.1 °F 30% 29.92 in 10.0 mi NNW 21.9 mph 27.6 mph N/A   Clear
6:54 PM 84.0 °F 82.9 °F 55.0 °F 37% 29.91 in 10.0 mi NNW 13.8 mph 25.3 mph N/A   Partly Cloudy
7:54 PM 82.0 °F 81.4 °F 55.0 °F 39% 29.91 in 10.0 mi NNW 12.7 mph - N/A   Clear
8:54 PM 79.0 °F - 55.0 °F 44% 29.91 in 10.0 mi NNW 10.4 mph - N/A   Clear
9:54 PM 75.9 °F - 55.9 °F 50% 29.92 in 10.0 mi NNW 6.9 mph - N/A   Clear
10:54 PM 73.0 °F - 55.9 °F 55% 29.93 in 10.0 mi NW 6.9 mph - N/A   Clear
11:54 PM 70.0 °F - 55.9 °F 61% 29.92 in 10.0 mi NW 5.8 mph - N/A   Clear